Regional Weather Roundup
Issued by NWS

Home | Current Version | Previous Version | Text Only | Print | Product List | Glossary Off
Versions: 1 2 3 4 5 6 7 8 9 10 11 12 13 14 15 16 17 18 19 20 21 22 23 24 25 26 27 28 29 30 31 32 33 34 35 36 37 38 39 40 41 42 43 44 45 46 47 48 49 50

000
ASUS43 KTOP 241859
RWRKS

WEATHER ROUNDUP FOR KANSAS
NATIONAL WEATHER SERVICE GOODLAND KS
200 PM CDT THU JUL 24 2014

NOTE:  "FAIR" INDICATES FEW OR NO CLOUDS BELOW 12,000 FEET WITH NO
SIGNIFICANT WEATHER AND/OR OBSTRUCTIONS TO VISIBILITY.

KSZ001>006-013>018-027>032-041>047-242000-
NORTHWEST KANSAS

CITY           SKY/WX    TMP DP  RH WIND       PRES   REMARKS
GOODLAND       SUNNY     98  45  16 S18G30    30.00F
HAYS           SUNNY     72  68  88 S23       29.99F
HILL CITY        N/A     96  68  39 S18G29    29.96  HX 101
RUSSELL        SUNNY     90  69  50 S22G32    29.99F
$$

KSZ061>065-074>080-084>089-242000-
SOUTHWEST KANSAS

CITY           SKY/WX    TMP DP  RH WIND       PRES   REMARKS
DODGE CITY     SUNNY     92  68  45 S18       30.05F HX  96
ELKHART          N/A     95  54  25 S13         N/A
GARDEN CITY    SUNNY     96  60  30 S14       30.02F HX  96
GREAT BEND     SUNNY     90  72  55 S21G28    30.00F HX  96
LIBERAL        SUNNY     99  57  25 SW16      30.06F HX  97
$$

KSZ066>073-081>083-090>101-242000-
SOUTHEAST KANSAS

CITY           SKY/WX    TMP DP  RH WIND       PRES   REMARKS
CHANUTE        SUNNY     83  66  56 SE8       30.08F
COFFEYVILLE    SUNNY     85  67  54 E8G16     30.07F
HUTCHINSON     SUNNY     90  66  45 SE14G23   30.05F
MEDICINE LODGE   N/A     89  72  56 S12       30.03F HX  96
NEWTON         SUNNY     88  64  45 S16       30.10F
PARSONS        SUNNY     85  67  54 VRB6      30.09F
WICHITA INTL   MOSUNNY   87  67  51 S13       30.06F
WICHITA JABRA  SUNNY     87  69  54 SE12G22   30.06F
WINFIELD       SUNNY     88  70  55 SE13G20   30.07F
$$

KSZ007>012-019>026-033>040-048>060-102>105-242000-
NORTHEAST KANSAS

CITY           SKY/WX    TMP DP  RH WIND       PRES   REMARKS
CONCORDIA      SUNNY     86  67  52 SE22G30   30.02F
EMPORIA        SUNNY     84  65  52 E13       30.08F
LAWRENCE       SUNNY     85  61  44 SE12      30.10F
MANHATTAN      SUNNY     89  63  41 E15       30.05F
OLATHE IND     SUNNY     82  58  43 E10       30.13F
OLATHE EXE     SUNNY     80  59  48 SE10      30.12F
SALINA         SUNNY     93  65  39 S15       30.02F HX  95
TOPEKA BILLARD SUNNY     86  61  42 SE14      30.09F
TOPEKA FORBES  SUNNY     86  61  42 SE12      30.09F
$$


USA.gov is the U.S. government's official web portal to all federal, state and local government web resources and services.